Pierre, SD

1:12 PM CST on December 18, 2017 (GMT -0600)
Pierre Regional

Weather History for KPIR - October, 2012

Change the Weather History Date:

Friday, October 19, 2012

  Actual Average Record
Temperature  
Mean Temperature 44 °F 47 °F  
Max Temperature 53 °F 60 °F 87 °F (1955)
Min Temperature 35 °F 35 °F 17 °F (1960)
Degree Days  
Heating Degree Days 21 18  
Month to date heating degree days 295 264  
Since 1 July heating degree days 403 435  
Cooling Degree Days 0 0  
Month to date cooling degree days 0 2  
Year to date cooling degree days 1112 865  
Moisture  
Dew Point 32 °F    
Average Humidity 60    
Maximum Humidity 76    
Minimum Humidity 44    
Precipitation  
Precipitation 0.00 in 0.06 in 1.23 in (1908)
Month to date precipitation 0.20 1.16  
Year to date precipitation 10.31 18.21  
Snow  
Snow 0.00 in 0.00 in T in (1898)
Month to date snowfall 0.0 0.3  
Since 1 July snowfall 0.0 0.3  
Snow Depth 0.00 in    
Sea Level Pressure  
Sea Level Pressure 29.84 in    
Wind  
Wind Speed 13 mph (NW)    
Max Wind Speed 39 mph    
Max Gust Speed 52 mph    
Visibility 10 miles    
Events      
T = Trace of Precipitation, MM = Missing Value Source: NWS Daily Summary

Daily Weather History Graph

Daily Weather History Graph

Search for Another Location

Airport or City:

Trip Planner

Search our weather history database for the weather conditions in past years. The results will help you decide how hot, cold, wet, or windy it might be!

Date:

Astronomy

Oct. 19, 2012 Rise Set
Actual Time 8:01 AM CDT 6:49 PM CDT
Civil Twilight 7:32 AM CDT 7:18 PM CDT
Nautical Twilight 6:58 AM CDT 7:52 PM CDT
Astronomical Twilight 6:25 AM CDT 8:26 PM CDT
Moon 12:54 PM CDT (10/19) 10:21 PM CDT (10/19)
Length of Visible Light 11h 46m
Length of Day
10h 47m
Waxing Crescent, 24% of the Moon is Illuminated
Oct 19
Waxing Crescent
Oct 21
First Quarter
Oct 29
Full
Nov 6
Last Quarter
Nov 13
New

Hourly Weather History & Observations

Time (CDT) Temp. Windchill Dew Point Humidity Pressure Visibility Wind Dir Wind Speed Gust Speed Precip Events Conditions
12:53 AM 44.1 °F 33.7 °F 33.1 °F 65% 29.88 in 10.0 mi NNW 32.2 mph 41.4 mph N/A   Overcast
1:53 AM 43.0 °F 31.4 °F 30.9 °F 62% 29.88 in 10.0 mi NNW 38.0 mph 47.2 mph N/A   Overcast
2:13 AM 42.8 °F 32.1 °F 32.0 °F 66% 29.85 in 10.0 mi NW 31.1 mph 41.4 mph N/A   Overcast
2:53 AM 43.0 °F 32.0 °F 32.0 °F 65% 29.88 in 10.0 mi NW 33.4 mph 43.7 mph N/A   Overcast
3:53 AM 42.1 °F 31.9 °F 33.1 °F 70% 29.88 in 10.0 mi NW 26.5 mph 34.5 mph N/A   Mostly Cloudy
4:53 AM 42.1 °F 32.1 °F 32.0 °F 67% 29.90 in 10.0 mi NW 25.3 mph 32.2 mph N/A   Overcast
5:38 AM 42.8 °F 33.8 °F 33.8 °F 70% 29.89 in 10.0 mi NW 21.9 mph 27.6 mph N/A   Overcast
5:53 AM 42.1 °F 31.9 °F 32.0 °F 67% 29.89 in 10.0 mi NNW 26.5 mph 34.5 mph N/A   Overcast
6:53 AM 42.1 °F 33.9 °F 32.0 °F 67% 29.91 in 10.0 mi NNW 17.3 mph 26.5 mph N/A   Overcast
7:53 AM 42.1 °F 34.5 °F 32.0 °F 67% 29.91 in 10.0 mi NNW 15.0 mph - N/A   Overcast
8:53 AM 41.0 °F 32.8 °F 33.1 °F 73% 29.91 in 10.0 mi NW 16.1 mph 23.0 mph N/A   Overcast
9:53 AM 41.0 °F 32.2 °F 32.0 °F 70% 29.91 in 10.0 mi NW 18.4 mph 24.2 mph N/A   Overcast
10:53 AM 43.0 °F 35.1 °F 30.9 °F 62% 29.91 in 10.0 mi NW 17.3 mph - N/A   Scattered Clouds
11:53 AM 46.0 °F 39.6 °F 32.0 °F 58% 29.90 in 10.0 mi NNW 15.0 mph 20.7 mph N/A   Partly Cloudy
12:53 PM 48.0 °F - 32.0 °F 54% 29.87 in 10.0 mi NNW 11.5 mph - N/A   Clear
1:53 PM 48.9 °F - 33.1 °F 54% 29.84 in 10.0 mi West 6.9 mph - N/A   Clear
2:53 PM 50.0 °F - 33.1 °F 52% 29.80 in 10.0 mi NNW 6.9 mph - N/A   Clear
3:53 PM 52.0 °F - 30.9 °F 45% 29.80 in 10.0 mi WNW 10.4 mph - N/A   Clear
4:53 PM 52.0 °F - 30.0 °F 43% 29.78 in 10.0 mi WNW 6.9 mph - N/A   Clear
5:53 PM 50.0 °F - 30.0 °F 46% 29.77 in 10.0 mi NNW 3.5 mph - N/A   Clear
6:53 PM 48.9 °F - 30.0 °F 48% 29.77 in 10.0 mi Calm Calm - N/A   Clear
7:53 PM 43.0 °F - 30.0 °F 60% 29.78 in 10.0 mi Calm Calm - N/A   Clear
8:53 PM 44.1 °F 42.5 °F 30.0 °F 58% 29.77 in 10.0 mi SE 3.5 mph - N/A   Clear
9:53 PM 39.9 °F 37.8 °F 30.0 °F 68% 29.76 in 10.0 mi ESE 3.5 mph - N/A   Clear
10:53 PM 41.0 °F 38.0 °F 34.0 °F 76% 29.74 in 10.0 mi SSE 4.6 mph - N/A   Clear
11:53 PM 39.0 °F 34.0 °F 32.0 °F 76% 29.73 in 10.0 mi ESE 6.9 mph - N/A   Clear